When you browse on this site, cookies collect data to enhance your experience and personalize the content and advertising you see.
Visit our Privacy Policy to learn more. By continuing to use the site, you agree to this use of cookies and data.
  • In Czech Republic
  • List of Countries
  • For 7 days
  • Water Temperature
  • Weather Map
  • Weather Widgets
  • user-avatar
    Login

    Hourly Weather Melbourne

    Today, 26 August, Monday

    Time Temperature Precipitation Wind Pressure Humidity
    00:00 +7°C° 0 mm 1 mps 767 mmHg 81%
    01:00 +6°C° 0 mm 2 mps 767 mmHg 82%
    02:00 +6°C° 0 mm 2 mps 767 mmHg 84%
    03:00 +7°C° 0 mm 1 mps 767 mmHg 85%
    04:00 +6°C° 0 mm 1 mps 767 mmHg 86%
    05:00 +6°C° 0 mm 1 mps 767 mmHg 87%
    06:00 +6°C° 0 mm 1 mps 767 mmHg 88%
    07:00 +6°C° 0 mm 1 mps 767 mmHg 89%
    08:00 +8°C° 0 mm 1 mps 767 mmHg 82%
    09:00 +10°C° 0 mm 1 mps 767 mmHg 75%
    10:00 +12°C° 0 mm 2 mps 767 mmHg 68%
    11:00 +13°C° 0 mm 2 mps 767 mmHg 62%
    12:00 +14°C° 0 mm 2 mps 767 mmHg 55%
    13:00 +15°C° 0 mm 2 mps 766 mmHg 49%
    14:00 +15°C° 0 mm 2 mps 766 mmHg 50%
    15:00 +15°C° 0 mm 2 mps 766 mmHg 51%
    16:00 +15°C° 0 mm 1 mps 765 mmHg 52%
    17:00 +13°C° 0 mm 1 mps 766 mmHg 59%
    18:00 +12°C° 0 mm 1 mps 766 mmHg 66%
    19:00 +10°C° 0 mm 1 mps 766 mmHg 72%
    20:00 +10°C° 0 mm 1 mps 766 mmHg 75%
    21:00 +9°C° 0 mm 1 mps 767 mmHg 78%
    22:00 +9°C° 0 mm 1 mps 767 mmHg 81%
    23:00 +8°C° 0 mm 1 mps 767 mmHg 82%

    Tomorrow, 27 August, Tuesday

    Time Temperature Precipitation Wind Pressure Humidity
    00:00 +7°C° 0 mm 2 mps 767 mmHg 84%
    01:00 +7°C° 0 mm 2 mps 767 mmHg 85%
    02:00 +7°C° 0 mm 2 mps 766 mmHg 86%
    03:00 +6°C° 0 mm 2 mps 766 mmHg 87%
    04:00 +6°C° 0 mm 2 mps 766 mmHg 88%
    05:00 +6°C° 0 mm 2 mps 766 mmHg 88%
    06:00 +6°C° 0 mm 2 mps 767 mmHg 89%
    07:00 +6°C° 0 mm 2 mps 767 mmHg 89%
    08:00 +8°C° 0 mm 2 mps 767 mmHg 83%
    09:00 +9°C° 0 mm 2 mps 767 mmHg 77%
    10:00 +12°C° 0 mm 2 mps 767 mmHg 71%
    11:00 +13°C° 0 mm 2 mps 766 mmHg 64%
    12:00 +15°C° 0 mm 2 mps 766 mmHg 57%
    13:00 +16°C° 0 mm 1 mps 765 mmHg 51%
    14:00 +16°C° 0 mm 2 mps 765 mmHg 52%
    15:00 +16°C° 0 mm 2 mps 765 mmHg 53%
    16:00 +15°C° 0 mm 2 mps 764 mmHg 55%
    17:00 +14°C° 0 mm 2 mps 765 mmHg 58%
    18:00 +14°C° 0 mm 2 mps 765 mmHg 61%
    19:00 +13°C° 0 mm 2 mps 765 mmHg 64%
    20:00 +12°C° 0 mm 2 mps 765 mmHg 67%
    21:00 +10°C° 0 mm 2 mps 765 mmHg 70%
    22:00 +9°C° 0 mm 3 mps 765 mmHg 73%
    23:00 +9°C° 0 mm 3 mps 765 mmHg 76%

    Day after tomorrow, 28 August, Wednesday

    Time Temperature Precipitation Wind Pressure Humidity
    00:00 +8°C° 0 mm 3 mps 765 mmHg 78%
    01:00 +8°C° 0 mm 3 mps 764 mmHg 80%
    02:00 +8°C° 0 mm 3 mps 764 mmHg 81%
    03:00 +7°C° 0 mm 3 mps 763 mmHg 81%
    04:00 +7°C° 0 mm 3 mps 763 mmHg 82%
    05:00 +7°C° 0 mm 3 mps 763 mmHg 81%
    06:00 +6°C° 0 mm 4 mps 763 mmHg 79%
    07:00 +6°C° 0 mm 4 mps 763 mmHg 77%
    08:00 +7°C° 0 mm 4 mps 763 mmHg 72%
    09:00 +9°C° 0 mm 5 mps 762 mmHg 66%
    10:00 +12°C° 0 mm 5 mps 762 mmHg 61%
    11:00 +11°C° 0.2 mm 6 mps 762 mmHg 62%
    12:00 +11°C° 0.2 mm 6 mps 762 mmHg 64%
    13:00 +11°C° 0.2 mm 7 mps 761 mmHg 65%
    14:00 +9°C° 2.6 mm 6 mps 762 mmHg 72%
    15:00 +8°C° 2.6 mm 5 mps 762 mmHg 79%
    16:00 +6°C° 2.6 mm 4 mps 762 mmHg 86%
    17:00 +6°C° 0.5 mm 4 mps 763 mmHg 84%
    18:00 +6°C° 0.5 mm 4 mps 764 mmHg 82%
    19:00 +6°C° 0.5 mm 4 mps 764 mmHg 79%
    20:00 +5°C° 0.1 mm 4 mps 765 mmHg 79%
    21:00 +5°C° 0.1 mm 4 mps 765 mmHg 78%
    22:00 +4°C° 0.1 mm 4 mps 766 mmHg 77%
    23:00 +4°C° 0.1 mm 4 mps 766 mmHg 78%

    29 August, Thursday

    Time Temperature Precipitation Wind Pressure Humidity
    00:00 +4°C° 0.1 mm 4 mps 766 mmHg 79%
    01:00 +4°C° 0.1 mm 4 mps 767 mmHg 80%
    02:00 +4°C° 0.1 mm 4 mps 767 mmHg 81%
    03:00 +4°C° 0.1 mm 4 mps 767 mmHg 82%
    04:00 +4°C° 0.1 mm 4 mps 767 mmHg 83%
    05:00 +4°C° 0.1 mm 4 mps 768 mmHg 83%
    06:00 +5°C° 0.1 mm 4 mps 768 mmHg 82%
    07:00 +5°C° 0.1 mm 4 mps 769 mmHg 82%
    08:00 +6°C° 0.1 mm 4 mps 769 mmHg 78%
    09:00 +6°C° 0.1 mm 4 mps 769 mmHg 74%
    10:00 +7°C° 0.1 mm 4 mps 770 mmHg 70%
    11:00 +8°C° 0 mm 4 mps 769 mmHg 65%
    12:00 +8°C° 0 mm 4 mps 769 mmHg 61%
    13:00 +10°C° 0 mm 4 mps 769 mmHg 57%
    14:00 +10°C° 0 mm 4 mps 769 mmHg 57%
    15:00 +10°C° 0 mm 4 mps 769 mmHg 57%
    16:00 +10°C° 0 mm 4 mps 769 mmHg 56%
    17:00 +8°C° 0 mm 4 mps 770 mmHg 62%
    18:00 +8°C° 0 mm 3 mps 770 mmHg 67%
    19:00 +7°C° 0 mm 3 mps 771 mmHg 72%
    20:00 +6°C° 0 mm 2 mps 771 mmHg 75%
    21:00 +6°C° 0 mm 2 mps 771 mmHg 77%
    22:00 +5°C° 0 mm 2 mps 771 mmHg 80%
    23:00 +5°C° 0 mm 2 mps 771 mmHg 81%

    30 August, Friday

    Time Temperature Precipitation Wind Pressure Humidity
    00:00 +5°C° 0 mm 2 mps 771 mmHg 81%
    01:00 +4°C° 0 mm 2 mps 771 mmHg 82%
    02:00 +5°C° 0 mm 1 mps 771 mmHg 83%
    03:00 +4°C° 0 mm 1 mps 771 mmHg 84%
    04:00 +4°C° 0 mm 1 mps 770 mmHg 85%
    05:00 +4°C° 0 mm 1 mps 771 mmHg 85%
    06:00 +3°C° 0 mm 1 mps 771 mmHg 86%
    07:00 +3°C° 0 mm 1 mps 771 mmHg 86%
    08:00 +5°C° 0 mm 1 mps 771 mmHg 77%
    09:00 +8°C° 0 mm 1 mps 771 mmHg 67%
    10:00 +10°C° 0 mm 1 mps 770 mmHg 58%
    11:00 +12°C° 0 mm 1 mps 770 mmHg 52%
    12:00 +14°C° 0 mm 1 mps 769 mmHg 46%
    13:00 +16°C° 0 mm 1 mps 769 mmHg 40%
    14:00 +16°C° 0 mm 1 mps 769 mmHg 41%
    15:00 +16°C° 0 mm 1 mps 768 mmHg 43%
    16:00 +16°C° 0 mm 2 mps 768 mmHg 44%
    17:00 +14°C° 0 mm 2 mps 768 mmHg 51%
    18:00 +12°C° 0 mm 2 mps 768 mmHg 58%
    19:00 +9°C° 0 mm 2 mps 768 mmHg 65%
    20:00 +9°C° 0 mm 2 mps 769 mmHg 67%
    21:00 +8°C° 0 mm 2 mps 769 mmHg 70%
    22:00 +7°C° 0 mm 2 mps 769 mmHg 72%
    23:00 +7°C° 0 mm 2 mps 769 mmHg 72%

    31 August, Saturday

    Time Temperature Precipitation Wind Pressure Humidity
    00:00 +6°C° 0 mm 2 mps 768 mmHg 72%
    01:00 +6°C° 0 mm 2 mps 768 mmHg 72%
    02:00 +6°C° 0 mm 2 mps 768 mmHg 74%
    03:00 +6°C° 0 mm 2 mps 768 mmHg 75%
    04:00 +4°C° 0 mm 3 mps 768 mmHg 76%
    05:00 +4°C° 0 mm 3 mps 768 mmHg 76%
    06:00 +4°C° 0 mm 3 mps 768 mmHg 75%
    07:00 +4°C° 0 mm 4 mps 768 mmHg 75%
    08:00 +7°C° 0 mm 4 mps 768 mmHg 67%
    09:00 +10°C° 0 mm 4 mps 768 mmHg 60%
    10:00 +13°C° 0 mm 5 mps 767 mmHg 52%
    11:00 +14°C° 0 mm 4 mps 767 mmHg 50%
    12:00 +15°C° 0 mm 4 mps 766 mmHg 48%
    13:00 +17°C° 0 mm 4 mps 766 mmHg 45%
    14:00 +17°C° 0 mm 4 mps 765 mmHg 48%
    15:00 +17°C° 0 mm 4 mps 765 mmHg 50%
    16:00 +17°C° 0 mm 4 mps 764 mmHg 52%
    17:00 +14°C° 0 mm 4 mps 765 mmHg 58%
    18:00 +13°C° 0 mm 3 mps 765 mmHg 64%
    19:00 +11°C° 0 mm 3 mps 765 mmHg 70%
    20:00 +11°C° 0 mm 3 mps 765 mmHg 72%
    21:00 +10°C° 0 mm 3 mps 765 mmHg 75%
    22:00 +9°C° 0 mm 2 mps 765 mmHg 77%
    23:00 +9°C° 0 mm 3 mps 765 mmHg 77%
    Show more